Time,TemperatureF,DewpointF,PressureIn,WindDirection,WindDirectionDegrees,WindSpeedMPH,WindSpeedGustMPH,Humidity,HourlyPrecipIn,Conditions,Clouds,dailyrainin,SoftwareType,DateUTC
2013-03-11 00:02:00,29.3,25.9,29.94,NW,315,10.7,10.7,87,0.00,,,0.00,WUHU216HW,2013-03-11 05:02:00,
2013-03-11 00:07:00,29.2,25.7,29.94,NW,315,10.5,14.8,87,0.00,,,0.00,WUHU216HW,2013-03-11 05:07:00,
2013-03-11 00:12:00,29.2,25.7,29.94,NW,315,9.8,13.2,87,0.00,,,0.00,WUHU216HW,2013-03-11 05:12:00,
2013-03-11 00:17:00,29.2,25.7,29.94,NW,315,11.0,11.0,87,0.00,,,0.00,WUHU216HW,2013-03-11 05:17:00,
2013-03-11 00:23:00,29.2,25.7,29.94,NW,315,6.3,11.6,87,0.00,,,0.00,WUHU216HW,2013-03-11 05:23:00,
2013-03-11 00:28:00,29.2,25.7,29.93,NW,315,8.5,11.6,87,0.00,,,0.00,WUHU216HW,2013-03-11 05:28:00,
2013-03-11 00:33:00,29.2,25.7,29.93,NW,315,9.2,9.2,87,0.00,,,0.00,WUHU216HW,2013-03-11 05:33:00,
2013-03-11 00:38:00,29.2,25.7,29.94,NW,315,9.4,9.4,87,0.00,,,0.00,WUHU216HW,2013-03-11 05:38:00,
2013-03-11 00:43:00,29.0,25.6,29.94,NW,315,8.9,10.5,87,0.00,,,0.00,WUHU216HW,2013-03-11 05:43:00,
2013-03-11 00:48:00,29.0,25.9,29.93,NW,315,4.9,10.5,88,0.00,,,0.00,WUHU216HW,2013-03-11 05:48:00,
2013-03-11 00:53:00,28.8,25.8,29.93,NW,315,6.3,12.3,88,0.00,,,0.00,WUHU216HW,2013-03-11 05:53:00,
2013-03-11 00:59:00,28.8,25.8,29.93,NW,315,4.9,12.3,88,0.00,,,0.00,WUHU216HW,2013-03-11 05:59:00,
2013-03-11 01:04:00,28.8,25.8,29.93,NW,315,6.3,12.1,88,0.00,,,0.00,WUHU216HW,2013-03-11 06:04:00,
2013-03-11 01:09:00,28.8,25.4,29.93,NW,315,10.5,10.5,87,0.00,,,0.00,WUHU216HW,2013-03-11 06:09:00,
2013-03-11 01:14:00,28.8,25.4,29.93,NW,315,4.0,12.1,87,0.00,,,0.00,WUHU216HW,2013-03-11 06:14:00,
2013-03-11 01:19:00,28.6,25.2,29.93,NW,315,7.8,9.2,87,0.00,,,0.00,WUHU216HW,2013-03-11 06:19:00,
2013-03-11 01:24:00,28.6,25.2,29.92,NW,315,7.8,9.2,87,0.00,,,0.00,WUHU216HW,2013-03-11 06:24:00,
2013-03-11 01:29:00,28.6,25.2,29.92,NW,315,6.7,9.2,87,0.00,,,0.00,WUHU216HW,2013-03-11 06:29:00,
2013-03-11 01:34:00,28.6,25.2,29.92,NW,315,6.7,9.2,87,0.00,,,0.00,WUHU216HW,2013-03-11 06:34:00,
2013-03-11 01:39:00,28.6,25.2,29.92,NW,315,6.3,9.2,87,0.00,,,0.00,WUHU216HW,2013-03-11 06:39:00,
2013-03-11 01:44:00,28.6,25.2,29.92,NW,315,4.3,8.5,87,0.00,,,0.00,WUHU216HW,2013-03-11 06:44:00,
2013-03-11 01:49:00,28.4,25.0,29.92,NW,315,2.9,10.3,87,0.00,,,0.00,WUHU216HW,2013-03-11 06:49:00,
2013-03-11 01:55:00,28.4,25.0,29.91,NW,315,6.3,10.3,87,0.00,,,0.00,WUHU216HW,2013-03-11 06:55:00,
2013-03-11 02:00:00,28.4,24.8,29.92,NW,315,7.6,10.1,86,0.00,,,0.00,WUHU216HW,2013-03-11 07:00:00,
2013-03-11 02:05:00,28.6,25.2,29.91,NW,315,9.4,10.5,87,0.00,,,0.00,WUHU216HW,2013-03-11 07:05:00,
2013-03-11 02:10:00,28.4,24.8,29.91,NW,315,8.3,11.0,86,0.00,,,0.00,WUHU216HW,2013-03-11 07:10:00,
2013-03-11 02:15:00,28.4,24.8,29.91,NW,315,7.4,11.0,86,0.00,,,0.00,WUHU216HW,2013-03-11 07:15:00,
2013-03-11 02:20:00,28.4,24.8,29.91,NW,315,8.1,10.5,86,0.00,,,0.00,WUHU216HW,2013-03-11 07:20:00,
2013-03-11 02:25:00,28.4,24.8,29.90,NW,315,8.9,11.9,86,0.00,,,0.00,WUHU216HW,2013-03-11 07:25:00,
2013-03-11 02:30:00,28.4,24.5,29.90,NW,315,8.5,11.9,85,0.00,,,0.00,WUHU216HW,2013-03-11 07:30:00,
2013-03-11 02:35:00,28.4,24.8,29.90,NW,315,6.7,15.0,86,0.00,,,0.00,WUHU216HW,2013-03-11 07:35:00,
2013-03-11 02:40:00,28.4,24.8,29.90,NW,315,7.6,15.0,86,0.00,,,0.00,WUHU216HW,2013-03-11 07:40:00,
2013-03-11 02:45:00,28.4,24.8,29.91,NW,315,12.8,13.6,86,0.00,,,0.00,WUHU216HW,2013-03-11 07:45:00,
2013-03-11 02:50:00,28.3,24.3,29.91,NW,315,6.9,13.6,85,0.00,,,0.00,WUHU216HW,2013-03-11 07:50:00,
2013-03-11 02:55:00,28.3,24.3,29.91,NW,315,8.5,12.1,85,0.00,,,0.00,WUHU216HW,2013-03-11 07:55:00,
2013-03-11 03:01:00,28.1,23.9,29.92,NW,315,6.0,10.7,84,0.00,,,0.00,WUHU216HW,2013-03-11 08:01:00,
2013-03-11 03:06:00,28.1,23.9,29.92,NW,315,7.8,11.6,84,0.00,,,0.00,WUHU216HW,2013-03-11 08:06:00,
2013-03-11 03:11:00,28.1,23.9,29.92,NW,315,8.5,11.6,84,0.00,,,0.00,WUHU216HW,2013-03-11 08:11:00,
2013-03-11 03:17:00,28.1,23.9,29.92,NW,315,9.2,10.5,84,0.00,,,0.00,WUHU216HW,2013-03-11 08:17:00,
2013-03-11 03:22:00,28.1,24.1,29.93,NW,315,6.9,10.5,85,0.00,,,0.00,WUHU216HW,2013-03-11 08:22:00,
2013-03-11 03:27:00,28.1,24.1,29.93,NW,315,7.6,7.8,85,0.00,,,0.00,WUHU216HW,2013-03-11 08:27:00,
2013-03-11 03:32:00,28.1,24.1,29.93,NW,315,5.1,8.5,85,0.00,,,0.00,WUHU216HW,2013-03-11 08:32:00,
2013-03-11 03:37:00,28.1,24.1,29.92,NW,315,5.8,8.5,85,0.00,,,0.00,WUHU216HW,2013-03-11 08:37:00,
2013-03-11 03:42:00,28.1,24.1,29.92,NW,315,8.9,9.8,85,0.00,,,0.00,WUHU216HW,2013-03-11 08:42:00,
2013-03-11 03:47:00,28.1,23.6,29.92,NW,315,6.5,9.8,83,0.00,,,0.00,WUHU216HW,2013-03-11 08:47:00,
2013-03-11 03:52:00,28.1,23.6,29.93,NW,315,6.7,9.6,83,0.00,,,0.00,WUHU216HW,2013-03-11 08:52:00,
2013-03-11 03:57:00,28.1,23.9,29.92,NW,315,3.4,8.7,84,0.00,,,0.00,WUHU216HW,2013-03-11 08:57:00,
2013-03-11 04:02:00,28.1,23.9,29.92,NW,315,8.5,8.5,84,0.00,,,0.00,WUHU216HW,2013-03-11 09:02:00,
2013-03-11 04:07:00,28.1,23.9,29.92,NW,315,4.0,10.1,84,0.00,,,0.00,WUHU216HW,2013-03-11 09:07:00,
2013-03-11 04:12:00,28.1,23.9,29.93,NW,315,7.8,10.1,84,0.00,,,0.00,WUHU216HW,2013-03-11 09:12:00,
2013-03-11 04:17:00,28.1,23.9,29.92,NW,315,4.5,8.5,84,0.00,,,0.00,WUHU216HW,2013-03-11 09:17:00,
2013-03-11 04:23:00,28.1,23.6,29.92,NW,315,8.7,9.8,83,0.00,,,0.00,WUHU216HW,2013-03-11 09:23:00,
2013-03-11 04:28:00,28.1,23.9,29.92,NW,315,5.8,9.8,84,0.00,,,0.00,WUHU216HW,2013-03-11 09:28:00,
2013-03-11 04:33:00,28.1,23.9,29.92,NW,315,7.8,9.2,84,0.00,,,0.00,WUHU216HW,2013-03-11 09:33:00,
2013-03-11 04:38:00,28.1,23.9,29.92,NW,315,6.9,8.7,84,0.00,,,0.00,WUHU216HW,2013-03-11 09:38:00,
2013-03-11 04:43:00,27.9,23.7,29.92,NW,315,5.8,8.7,84,0.00,,,0.00,WUHU216HW,2013-03-11 09:43:00,
2013-03-11 04:48:00,27.9,23.4,29.92,NW,315,5.8,10.5,83,0.00,,,0.00,WUHU216HW,2013-03-11 09:48:00,
2013-03-11 04:53:00,28.1,23.6,29.92,NW,315,6.7,11.9,83,0.00,,,0.00,WUHU216HW,2013-03-11 09:53:00,
2013-03-11 04:59:00,28.1,23.6,29.92,NW,315,7.6,11.9,83,0.00,,,0.00,WUHU216HW,2013-03-11 09:59:00,
2013-03-11 05:04:00,28.1,23.6,29.92,NW,315,10.7,10.7,83,0.00,,,0.00,WUHU216HW,2013-03-11 10:04:00,
2013-03-11 05:09:00,28.1,23.6,29.92,NW,315,7.8,11.2,83,0.00,,,0.00,WUHU216HW,2013-03-11 10:09:00,
2013-03-11 05:14:00,28.1,23.6,29.92,NW,315,10.3,11.2,83,0.00,,,0.00,WUHU216HW,2013-03-11 10:14:00,
2013-03-11 05:19:00,28.1,23.6,29.92,NW,315,4.5,10.3,83,0.00,,,0.00,WUHU216HW,2013-03-11 10:19:00,
2013-03-11 05:24:00,28.1,23.6,29.93,NW,315,3.4,10.5,83,0.00,,,0.00,WUHU216HW,2013-03-11 10:24:00,
2013-03-11 05:29:00,28.1,23.9,29.93,NW,315,6.9,10.5,84,0.00,,,0.00,WUHU216HW,2013-03-11 10:29:00,
2013-03-11 05:34:00,28.1,23.9,29.93,NW,315,8.3,9.6,84,0.00,,,0.00,WUHU216HW,2013-03-11 10:34:00,
2013-03-11 05:39:00,28.1,23.9,29.93,NW,315,9.2,9.6,84,0.00,,,0.00,WUHU216HW,2013-03-11 10:39:00,
2013-03-11 05:44:00,28.1,23.6,29.93,NW,315,8.1,10.5,83,0.00,,,0.00,WUHU216HW,2013-03-11 10:44:00,
2013-03-11 05:49:00,28.1,23.6,29.93,NW,315,11.4,11.4,83,0.00,,,0.00,WUHU216HW,2013-03-11 10:49:00,
2013-03-11 05:54:00,28.1,23.6,29.93,NW,315,10.3,11.4,83,0.00,,,0.00,WUHU216HW,2013-03-11 10:54:00,
2013-03-11 06:00:00,28.1,23.6,29.93,NW,315,7.2,11.4,83,0.00,,,0.00,WUHU216HW,2013-03-11 11:00:00,
2013-03-11 06:05:00,28.1,23.9,29.93,NW,315,11.9,11.9,84,0.00,,,0.00,WUHU216HW,2013-03-11 11:05:00,
2013-03-11 06:10:00,28.1,23.9,29.92,NW,315,5.8,11.9,84,0.00,,,0.00,WUHU216HW,2013-03-11 11:10:00,
2013-03-11 06:15:00,27.9,23.4,29.92,NW,315,7.2,8.9,83,0.00,,,0.00,WUHU216HW,2013-03-11 11:15:00,
2013-03-11 06:20:00,27.9,23.4,29.93,NW,315,4.7,8.9,83,0.00,,,0.00,WUHU216HW,2013-03-11 11:20:00,
2013-03-11 06:25:00,27.7,23.2,29.92,NW,315,3.4,9.2,83,0.00,,,0.00,WUHU216HW,2013-03-11 11:25:00,
2013-03-11 06:30:00,27.7,23.5,29.92,NW,315,3.4,9.2,84,0.00,,,0.00,WUHU216HW,2013-03-11 11:30:00,
2013-03-11 06:36:00,27.5,23.3,29.92,NW,315,5.4,6.5,84,0.00,,,0.00,WUHU216HW,2013-03-11 11:36:00,
2013-03-11 06:41:00,27.4,23.1,29.92,NW,315,6.3,9.6,84,0.00,,,0.00,WUHU216HW,2013-03-11 11:41:00,
2013-03-11 06:46:00,27.4,23.1,29.92,NW,315,4.5,9.6,84,0.00,,,0.00,WUHU216HW,2013-03-11 11:46:00,
2013-03-11 06:51:00,27.2,23.2,29.92,NW,315,5.4,8.7,85,0.00,,,0.00,WUHU216HW,2013-03-11 11:51:00,
2013-03-11 06:57:00,27.2,23.2,29.92,NW,315,6.3,8.7,85,0.00,,,0.00,WUHU216HW,2013-03-11 11:57:00,
2013-03-11 07:02:00,27.0,23.0,29.92,NW,315,4.7,6.3,85,0.00,,,0.00,WUHU216HW,2013-03-11 12:02:00,
2013-03-11 07:07:00,27.0,23.0,29.92,NW,315,3.8,6.0,85,0.00,,,0.00,WUHU216HW,2013-03-11 12:07:00,
2013-03-11 07:12:00,27.0,23.0,29.92,NW,315,3.8,6.0,85,0.00,,,0.00,WUHU216HW,2013-03-11 12:12:00,
2013-03-11 07:17:00,26.8,22.9,29.92,NW,315,6.0,6.3,85,0.00,,,0.00,WUHU216HW,2013-03-11 12:17:00,
2013-03-11 07:22:00,26.8,22.9,29.92,NW,315,4.5,7.8,85,0.00,,,0.00,WUHU216HW,2013-03-11 12:22:00,
2013-03-11 07:28:00,26.8,22.9,29.92,NW,315,7.6,8.9,85,0.00,,,0.00,WUHU216HW,2013-03-11 12:28:00,
2013-03-11 07:33:00,27.0,23.0,29.92,NW,315,5.4,9.2,85,0.00,,,0.00,WUHU216HW,2013-03-11 12:33:00,
2013-03-11 07:38:00,27.0,23.0,29.92,NW,315,6.3,9.6,85,0.00,,,0.00,WUHU216HW,2013-03-11 12:38:00,
2013-03-11 07:43:00,26.8,22.9,29.92,NW,315,6.0,9.6,85,0.00,,,0.00,WUHU216HW,2013-03-11 12:43:00,
2013-03-11 07:48:00,26.8,22.9,29.93,NW,315,7.8,8.1,85,0.00,,,0.00,WUHU216HW,2013-03-11 12:48:00,
2013-03-11 07:53:00,26.8,22.9,29.93,NW,315,5.6,8.1,85,0.00,,,0.00,WUHU216HW,2013-03-11 12:53:00,
2013-03-11 07:58:00,27.0,23.0,29.93,NW,315,7.6,9.8,85,0.00,,,0.00,WUHU216HW,2013-03-11 12:58:00,
2013-03-11 08:03:00,27.0,23.0,29.93,NW,315,4.0,9.8,85,0.00,,,0.00,WUHU216HW,2013-03-11 13:03:00,
2013-03-11 08:08:00,27.0,23.0,29.93,NW,315,5.4,6.3,85,0.00,,,0.00,WUHU216HW,2013-03-11 13:08:00,
2013-03-11 08:13:00,27.2,23.2,29.93,NW,315,6.7,6.7,85,0.00,,,0.00,WUHU216HW,2013-03-11 13:13:00,
2013-03-11 08:18:00,27.4,23.4,29.93,NW,315,4.0,9.4,85,0.00,,,0.00,WUHU216HW,2013-03-11 13:18:00,
2013-03-11 08:24:00,27.4,23.4,29.94,NW,315,3.6,9.4,85,0.00,,,0.00,WUHU216HW,2013-03-11 13:24:00,
2013-03-11 08:29:00,27.4,23.4,29.94,NW,315,8.1,8.1,85,0.00,,,0.00,WUHU216HW,2013-03-11 13:29:00,
2013-03-11 08:34:00,27.5,23.6,29.94,NW,315,5.1,8.1,85,0.00,,,0.00,WUHU216HW,2013-03-11 13:34:00,
2013-03-11 08:39:00,27.7,23.5,29.94,NW,315,4.0,7.6,84,0.00,,,0.00,WUHU216HW,2013-03-11 13:39:00,
2013-03-11 08:44:00,27.7,23.2,29.94,NW,315,8.5,13.0,83,0.00,,,0.00,WUHU216HW,2013-03-11 13:44:00,
2013-03-11 08:49:00,27.7,23.2,29.94,NW,315,7.6,13.0,83,0.00,,,0.00,WUHU216HW,2013-03-11 13:49:00,
2013-03-11 08:54:00,27.7,23.5,29.94,NW,315,6.9,10.7,84,0.00,,,0.00,WUHU216HW,2013-03-11 13:54:00,
2013-03-11 09:00:00,28.1,23.6,29.94,NW,315,11.0,11.2,83,0.00,,,0.00,WUHU216HW,2013-03-11 14:00:00,
2013-03-11 09:05:00,28.1,23.6,29.95,NW,315,7.6,11.2,83,0.00,,,0.00,WUHU216HW,2013-03-11 14:05:00,
2013-03-11 09:10:00,28.6,24.1,29.95,NW,315,8.5,12.8,83,0.00,,,0.00,WUHU216HW,2013-03-11 14:10:00,
2013-03-11 09:15:00,29.3,24.2,29.96,NW,315,9.2,9.2,81,0.00,,,0.00,WUHU216HW,2013-03-11 14:15:00,
2013-03-11 09:20:00,29.0,23.9,29.96,NW,315,6.3,9.2,81,0.00,,,0.00,WUHU216HW,2013-03-11 14:20:00,
2013-03-11 09:25:00,29.2,24.0,29.96,NW,315,4.3,9.2,81,0.00,,,0.00,WUHU216HW,2013-03-11 14:25:00,
2013-03-11 09:30:00,29.3,23.9,29.96,NW,315,8.7,8.9,80,0.00,,,0.00,WUHU216HW,2013-03-11 14:30:00,
2013-03-11 09:35:00,29.2,23.8,29.96,NW,315,3.8,9.2,80,0.00,,,0.00,WUHU216HW,2013-03-11 14:35:00,
2013-03-11 09:41:00,29.3,23.9,29.96,NW,315,2.9,9.2,80,0.00,,,0.00,WUHU216HW,2013-03-11 14:41:00,
2013-03-11 09:46:00,29.5,24.1,29.96,NW,315,3.1,8.7,80,0.00,,,0.00,WUHU216HW,2013-03-11 14:46:00,
2013-03-11 09:51:00,29.5,24.1,29.96,NW,315,5.8,9.2,80,0.00,,,0.00,WUHU216HW,2013-03-11 14:51:00,
2013-03-11 09:56:00,29.2,23.8,29.97,NW,315,3.6,11.0,80,0.00,,,0.00,WUHU216HW,2013-03-11 14:56:00,
2013-03-11 10:01:00,29.5,24.4,29.96,NW,315,4.9,11.0,81,0.00,,,0.00,WUHU216HW,2013-03-11 15:01:00,
2013-03-11 10:06:00,29.5,23.8,29.96,NW,315,6.5,9.8,79,0.00,,,0.00,WUHU216HW,2013-03-11 15:06:00,
2013-03-11 10:11:00,29.7,23.9,29.96,NW,315,4.7,9.8,79,0.00,,,0.00,WUHU216HW,2013-03-11 15:11:00,
2013-03-11 10:16:00,29.9,24.1,29.96,NW,315,6.5,9.8,79,0.00,,,0.00,WUHU216HW,2013-03-11 15:16:00,
2013-03-11 10:22:00,29.9,24.1,29.96,NW,315,7.6,9.4,79,0.00,,,0.00,WUHU216HW,2013-03-11 15:22:00,
2013-03-11 10:27:00,30.1,24.3,29.97,NW,315,10.3,10.3,79,0.00,,,0.00,WUHU216HW,2013-03-11 15:27:00,
2013-03-11 10:32:00,29.9,24.1,29.97,NW,315,6.7,10.3,79,0.00,,,0.00,WUHU216HW,2013-03-11 15:32:00,
2013-03-11 10:37:00,30.2,24.2,29.97,NW,315,6.3,11.6,78,0.00,,,0.00,WUHU216HW,2013-03-11 15:37:00,
2013-03-11 10:42:00,30.2,24.5,29.97,NW,315,8.7,11.6,79,0.00,,,0.00,WUHU216HW,2013-03-11 15:42:00,
2013-03-11 10:47:00,30.4,24.7,29.97,NW,315,4.5,8.7,79,0.00,,,0.00,WUHU216HW,2013-03-11 15:47:00,
2013-03-11 10:52:00,30.6,24.8,29.97,NW,315,6.9,8.5,79,0.00,,,0.00,WUHU216HW,2013-03-11 15:52:00,
2013-03-11 10:57:00,31.0,24.9,29.97,NW,315,5.4,9.2,78,0.00,,,0.00,WUHU216HW,2013-03-11 15:57:00,
2013-03-11 11:02:00,31.0,24.9,29.97,NW,315,5.4,9.2,78,0.00,,,0.00,WUHU216HW,2013-03-11 16:02:00,
2013-03-11 11:08:00,31.3,25.3,29.97,NW,315,9.2,9.2,78,0.00,,,0.00,WUHU216HW,2013-03-11 16:08:00,
2013-03-11 11:13:00,31.1,25.1,29.97,NW,315,8.3,9.8,78,0.00,,,0.00,WUHU216HW,2013-03-11 16:13:00,
2013-03-11 11:18:00,31.3,25.3,29.97,NW,315,5.1,10.1,78,0.00,,,0.00,WUHU216HW,2013-03-11 16:18:00,
2013-03-11 11:23:00,31.9,25.8,29.97,NW,315,2.2,10.1,78,0.00,,,0.00,WUHU216HW,2013-03-11 16:23:00,
2013-03-11 11:28:00,32.8,26.3,29.96,NW,315,2.5,7.2,77,0.00,,,0.00,WUHU216HW,2013-03-11 16:28:00,
2013-03-11 11:33:00,33.1,26.3,29.96,SW,225,6.0,8.7,76,0.00,,,0.00,WUHU216HW,2013-03-11 16:33:00,
2013-03-11 11:38:00,33.3,26.8,29.97,West,270,4.3,8.7,77,0.00,,,0.00,WUHU216HW,2013-03-11 16:38:00,
2013-03-11 11:43:00,33.5,26.6,29.97,NW,315,5.4,8.1,76,0.00,,,0.00,WUHU216HW,2013-03-11 16:43:00,
2013-03-11 11:48:00,35.5,28.3,29.97,WNW,293,4.5,6.3,75,0.00,,,0.00,WUHU216HW,2013-03-11 16:48:00,
2013-03-11 11:53:00,34.4,26.6,29.96,WNW,293,5.4,9.2,73,0.00,,,0.00,WUHU216HW,2013-03-11 16:53:00,
2013-03-11 11:58:00,35.8,28.0,29.96,West,270,6.3,9.2,73,0.00,,,0.00,WUHU216HW,2013-03-11 16:58:00,
2013-03-11 12:03:00,35.5,27.3,29.96,WSW,248,2.2,8.9,72,0.00,,,0.00,WUHU216HW,2013-03-11 17:03:00,
2013-03-11 12:09:00,34.7,26.9,29.97,WNW,293,6.9,12.5,73,0.00,,,0.00,WUHU216HW,2013-03-11 17:09:00,
2013-03-11 12:14:00,36.9,29.1,29.97,SW,225,4.9,12.5,73,0.00,,,0.00,WUHU216HW,2013-03-11 17:14:00,
2013-03-11 12:19:00,36.4,28.5,29.97,NW,315,8.9,8.9,73,0.00,,,0.00,WUHU216HW,2013-03-11 17:19:00,
2013-03-11 12:24:00,36.4,28.2,29.97,West,270,3.6,9.8,72,0.00,,,0.00,WUHU216HW,2013-03-11 17:24:00,
2013-03-11 12:29:00,37.8,30.0,29.97,NNW,338,6.3,9.8,73,0.00,,,0.00,WUHU216HW,2013-03-11 17:29:00,
2013-03-11 12:34:00,37.4,29.6,29.97,West,270,10.1,13.4,73,0.00,,,0.00,WUHU216HW,2013-03-11 17:34:00,
2013-03-11 12:39:00,37.1,29.3,29.97,West,270,12.1,13.4,73,0.00,,,0.00,WUHU216HW,2013-03-11 17:39:00,
2013-03-11 12:45:00,37.3,29.1,29.97,WNW,293,5.4,12.1,72,0.00,,,0.00,WUHU216HW,2013-03-11 17:45:00,
2013-03-11 12:50:00,37.8,29.3,29.97,WSW,248,8.7,12.8,71,0.00,,,0.00,WUHU216HW,2013-03-11 17:50:00,
2013-03-11 12:55:00,38.9,30.6,29.97,West,270,7.2,12.8,72,0.00,,,0.00,WUHU216HW,2013-03-11 17:55:00,
2013-03-11 13:00:00,39.2,30.2,29.97,WSW,248,7.2,10.3,70,0.00,,,0.00,WUHU216HW,2013-03-11 18:00:00,
2013-03-11 13:05:00,38.9,29.5,29.97,WNW,293,8.9,13.2,69,0.00,,,0.00,WUHU216HW,2013-03-11 18:05:00,
2013-03-11 13:10:00,38.7,29.3,29.97,WSW,248,12.1,13.2,69,0.00,,,0.00,WUHU216HW,2013-03-11 18:10:00,
2013-03-11 13:15:00,39.4,30.8,29.96,WSW,248,7.8,12.3,71,0.00,,,0.00,WUHU216HW,2013-03-11 18:15:00,
2013-03-11 13:20:00,38.2,28.2,29.96,NNW,338,6.0,8.7,67,0.00,,,0.00,WUHU216HW,2013-03-11 18:20:00,
2013-03-11 13:25:00,39.4,30.4,29.96,SW,225,5.1,10.5,70,0.00,,,0.00,WUHU216HW,2013-03-11 18:25:00,
2013-03-11 13:30:00,40.3,30.6,29.95,WSW,248,7.6,11.4,68,0.00,,,0.00,WUHU216HW,2013-03-11 18:30:00,
2013-03-11 13:36:00,40.7,30.5,29.95,SSW,203,4.7,11.4,67,0.00,,,0.00,WUHU216HW,2013-03-11 18:36:00,
2013-03-11 13:41:00,40.1,29.6,29.95,West,270,9.2,9.8,66,0.00,,,0.00,WUHU216HW,2013-03-11 18:41:00,
2013-03-11 13:46:00,40.9,31.9,29.95,West,270,7.2,9.8,70,0.00,,,0.00,WUHU216HW,2013-03-11 18:46:00,
2013-03-11 13:51:00,41.4,31.2,29.94,West,270,11.2,11.2,67,0.00,,,0.00,WUHU216HW,2013-03-11 18:51:00,
2013-03-11 13:56:00,40.1,28.5,29.94,NW,315,6.0,11.4,63,0.00,,,0.00,WUHU216HW,2013-03-11 18:56:00,
2013-03-11 14:01:00,40.3,29.8,29.94,WSW,248,6.9,11.4,66,0.00,,,0.00,WUHU216HW,2013-03-11 19:01:00,
2013-03-11 14:07:00,41.2,31.1,29.94,WNW,293,5.4,10.5,67,0.00,,,0.00,WUHU216HW,2013-03-11 19:07:00,
2013-03-11 14:12:00,40.9,30.3,29.94,NW,315,6.7,10.5,66,0.00,,,0.00,WUHU216HW,2013-03-11 19:12:00,
2013-03-11 14:17:00,41.6,29.5,29.94,WNW,293,10.3,10.3,62,0.00,,,0.00,WUHU216HW,2013-03-11 19:17:00,
2013-03-11 14:22:00,41.9,30.3,29.94,West,270,6.9,10.3,63,0.00,,,0.00,WUHU216HW,2013-03-11 19:22:00,
2013-03-11 14:28:00,41.9,29.9,29.94,NW,315,3.4,10.1,62,0.00,,,0.00,WUHU216HW,2013-03-11 19:28:00,
2013-03-11 14:33:00,42.8,30.7,29.94,WSW,248,7.2,10.1,62,0.00,,,0.00,WUHU216HW,2013-03-11 19:33:00,
2013-03-11 14:38:00,43.2,30.2,29.94,West,270,3.8,7.4,60,0.00,,,0.00,WUHU216HW,2013-03-11 19:38:00,
2013-03-11 14:43:00,44.3,31.7,29.94,West,270,3.8,7.8,61,0.00,,,0.00,WUHU216HW,2013-03-11 19:43:00,
2013-03-11 14:48:00,44.6,31.7,29.94,West,270,7.6,10.5,60,0.00,,,0.00,WUHU216HW,2013-03-11 19:48:00,
2013-03-11 14:53:00,44.5,28.8,29.94,NW,315,10.5,10.5,54,0.00,,,0.00,WUHU216HW,2013-03-11 19:53:00,
2013-03-11 14:58:00,43.7,28.6,29.94,WNW,293,7.6,10.5,55,0.00,,,0.00,WUHU216HW,2013-03-11 19:58:00,
2013-03-11 15:03:00,43.7,28.2,29.94,West,270,7.2,10.7,54,0.00,,,0.00,WUHU216HW,2013-03-11 20:03:00,
2013-03-11 15:08:00,43.6,28.5,29.94,West,270,8.9,11.0,55,0.00,,,0.00,WUHU216HW,2013-03-11 20:08:00,
2013-03-11 15:13:00,43.6,27.1,29.94,NNW,338,8.3,11.0,52,0.00,,,0.00,WUHU216HW,2013-03-11 20:13:00,
2013-03-11 15:19:00,44.1,27.5,29.94,West,270,12.8,12.8,52,0.00,,,0.00,WUHU216HW,2013-03-11 20:19:00,
2013-03-11 15:24:00,45.2,29.9,29.94,WSW,248,6.3,12.8,55,0.00,,,0.00,WUHU216HW,2013-03-11 20:24:00,
2013-03-11 15:29:00,45.2,29.0,29.94,West,270,9.2,12.8,53,0.00,,,0.00,WUHU216HW,2013-03-11 20:29:00,
2013-03-11 15:35:00,44.5,27.9,29.95,WSW,248,8.3,10.3,52,0.00,,,0.00,WUHU216HW,2013-03-11 20:35:00,
2013-03-11 15:40:00,44.8,28.7,29.94,NNW,338,6.7,11.9,53,0.00,,,0.00,WUHU216HW,2013-03-11 20:40:00,
2013-03-11 15:45:00,45.0,28.0,29.94,West,270,8.9,11.9,51,0.00,,,0.00,WUHU216HW,2013-03-11 20:45:00,
2013-03-11 15:50:00,44.8,27.4,29.94,West,270,11.0,13.4,50,0.00,,,0.00,WUHU216HW,2013-03-11 20:50:00,
2013-03-11 15:55:00,44.5,27.0,29.94,WSW,248,10.5,13.4,50,0.00,,,0.00,WUHU216HW,2013-03-11 20:55:00,
2013-03-11 16:00:00,45.0,27.6,29.94,WNW,293,8.5,12.8,50,0.00,,,0.00,WUHU216HW,2013-03-11 21:00:00,
2013-03-11 16:05:00,45.7,29.1,29.94,West,270,6.9,8.5,52,0.00,,,0.00,WUHU216HW,2013-03-11 21:05:00,
2013-03-11 16:10:00,45.5,28.0,29.94,West,270,7.2,11.4,50,0.00,,,0.00,WUHU216HW,2013-03-11 21:10:00,
2013-03-11 16:15:00,46.3,28.6,29.94,SW,225,7.8,11.4,50,0.00,,,0.00,WUHU216HW,2013-03-11 21:15:00,
2013-03-11 16:20:00,45.5,28.0,29.94,SW,225,6.7,9.2,50,0.00,,,0.00,WUHU216HW,2013-03-11 21:20:00,
2013-03-11 16:25:00,45.5,25.8,29.94,West,270,13.4,13.4,46,0.00,,,0.00,WUHU216HW,2013-03-11 21:25:00,
2013-03-11 16:30:00,45.7,27.1,29.94,SW,225,4.0,13.4,48,0.00,,,0.00,WUHU216HW,2013-03-11 21:30:00,
2013-03-11 16:36:00,45.7,26.0,29.94,WNW,293,9.8,13.9,46,0.00,,,0.00,WUHU216HW,2013-03-11 21:36:00,
2013-03-11 16:41:00,46.1,25.7,29.95,WNW,293,7.6,13.9,45,0.00,,,0.00,WUHU216HW,2013-03-11 21:41:00,
2013-03-11 16:46:00,46.4,29.3,29.95,West,270,4.0,13.0,51,0.00,,,0.00,WUHU216HW,2013-03-11 21:46:00,
2013-03-11 16:51:00,47.2,28.4,29.95,WSW,248,6.9,9.2,48,0.00,,,0.00,WUHU216HW,2013-03-11 21:51:00,
2013-03-11 16:56:00,46.6,25.8,29.94,West,270,10.3,12.1,44,0.00,,,0.00,WUHU216HW,2013-03-11 21:56:00,
2013-03-11 17:02:00,46.4,26.6,29.94,WNW,293,7.8,12.1,46,0.00,,,0.00,WUHU216HW,2013-03-11 22:02:00,
2013-03-11 17:07:00,46.8,25.9,29.94,West,270,5.4,10.3,44,0.00,,,0.00,WUHU216HW,2013-03-11 22:07:00,
2013-03-11 17:12:00,47.0,26.6,29.94,NW,315,5.8,13.4,45,0.00,,,0.00,WUHU216HW,2013-03-11 22:12:00,
2013-03-11 17:17:00,47.2,25.7,29.94,West,270,8.5,13.4,43,0.00,,,0.00,WUHU216HW,2013-03-11 22:17:00,
2013-03-11 17:22:00,46.8,25.9,29.94,West,270,9.2,12.8,44,0.00,,,0.00,WUHU216HW,2013-03-11 22:22:00,
2013-03-11 17:27:00,46.6,23.6,29.94,West,270,11.0,11.0,40,0.00,,,0.00,WUHU216HW,2013-03-11 22:27:00,
2013-03-11 17:32:00,47.2,25.1,29.94,West,270,5.8,11.2,42,0.00,,,0.00,WUHU216HW,2013-03-11 22:32:00,
2013-03-11 17:38:00,47.2,25.1,29.94,SSW,203,7.6,11.2,42,0.00,,,0.00,WUHU216HW,2013-03-11 22:38:00,
2013-03-11 17:43:00,47.3,25.3,29.94,WNW,293,6.3,8.5,42,0.00,,,0.00,WUHU216HW,2013-03-11 22:43:00,
2013-03-11 17:48:00,47.0,23.9,29.94,West,270,6.5,10.1,40,0.00,,,0.00,WUHU216HW,2013-03-11 22:48:00,
2013-03-11 17:53:00,47.2,24.6,29.94,WNW,293,5.4,10.1,41,0.00,,,0.00,WUHU216HW,2013-03-11 22:53:00,
2013-03-11 17:58:00,47.7,25.1,29.94,West,270,6.5,7.4,41,0.00,,,0.00,WUHU216HW,2013-03-11 22:58:00,
2013-03-11 18:03:00,47.5,24.4,29.94,WNW,293,6.9,6.9,40,0.00,,,0.00,WUHU216HW,2013-03-11 23:03:00,
2013-03-11 18:08:00,47.7,23.9,29.94,NW,315,6.0,7.6,39,0.00,,,0.00,WUHU216HW,2013-03-11 23:08:00,
2013-03-11 18:13:00,47.5,24.4,29.95,SW,225,1.8,7.6,40,0.00,,,0.00,WUHU216HW,2013-03-11 23:13:00,
2013-03-11 18:19:00,47.5,23.0,29.94,West,270,2.7,6.7,38,0.00,,,0.00,WUHU216HW,2013-03-11 23:19:00,
2013-03-11 18:24:00,47.5,23.0,29.94,West,270,5.4,6.9,38,0.00,,,0.00,WUHU216HW,2013-03-11 23:24:00,
2013-03-11 18:29:00,47.7,23.9,29.94,West,270,7.6,7.6,39,0.00,,,0.00,WUHU216HW,2013-03-11 23:29:00,
2013-03-11 18:34:00,47.2,23.4,29.95,West,270,4.0,7.6,39,0.00,,,0.00,WUHU216HW,2013-03-11 23:34:00,
2013-03-11 18:39:00,47.3,23.6,29.95,WNW,293,2.5,7.2,39,0.00,,,0.00,WUHU216HW,2013-03-11 23:39:00,
2013-03-11 18:44:00,47.0,23.9,29.95,West,270,6.9,7.2,40,0.00,,,0.00,WUHU216HW,2013-03-11 23:44:00,
2013-03-11 18:49:00,45.7,22.1,29.95,West,270,1.1,6.9,39,0.00,,,0.00,WUHU216HW,2013-03-11 23:49:00,
2013-03-11 18:54:00,45.5,23.1,29.95,West,270,3.8,6.9,41,0.00,,,0.00,WUHU216HW,2013-03-11 23:54:00,
2013-03-11 18:59:00,46.1,23.0,29.95,WNW,293,3.4,6.9,40,0.00,,,0.00,WUHU216HW,2013-03-11 23:59:00,
2013-03-11 19:05:00,46.1,23.6,29.95,WNW,293,2.5,4.7,41,0.00,,,0.00,WUHU216HW,2013-03-12 00:05:00,
2013-03-11 19:10:00,45.4,23.0,29.95,West,270,2.2,4.0,41,0.00,,,0.00,WUHU216HW,2013-03-12 00:10:00,
2013-03-11 19:15:00,44.3,22.0,29.95,West,270,2.0,4.0,41,0.00,,,0.00,WUHU216HW,2013-03-12 00:15:00,
2013-03-11 19:20:00,43.6,22.4,29.96,NW,315,1.8,4.0,43,0.00,,,0.00,WUHU216HW,2013-03-12 00:20:00,
2013-03-11 19:25:00,42.8,21.8,29.96,WNW,293,2.2,3.4,43,0.00,,,0.00,WUHU216HW,2013-03-12 00:25:00,
2013-03-11 19:30:00,42.5,22.0,29.96,West,270,0.4,3.4,44,0.00,,,0.00,WUHU216HW,2013-03-12 00:30:00,
2013-03-11 19:35:00,41.8,22.3,29.96,West,270,0.7,2.2,46,0.00,,,0.00,WUHU216HW,2013-03-12 00:35:00,
2013-03-11 19:40:00,41.0,22.2,29.96,West,270,0.0,1.6,47,0.00,,,0.00,WUHU216HW,2013-03-12 00:40:00,
2013-03-11 19:46:00,40.3,22.1,29.96,West,270,0.0,0.9,48,0.00,,,0.00,WUHU216HW,2013-03-12 00:46:00,
2013-03-11 19:51:00,39.8,22.2,29.96,West,270,0.0,0.7,49,0.00,,,0.00,WUHU216HW,2013-03-12 00:51:00,
2013-03-11 19:56:00,39.2,21.6,29.97,WNW,293,0.4,0.7,49,0.00,,,0.00,WUHU216HW,2013-03-12 00:56:00,
2013-03-11 20:01:00,38.7,21.7,29.97,WNW,293,0.0,0.7,50,0.00,,,0.00,WUHU216HW,2013-03-12 01:01:00,
2013-03-11 20:07:00,38.0,21.0,29.97,WNW,293,0.0,0.7,50,0.00,,,0.00,WUHU216HW,2013-03-12 01:07:00,
2013-03-11 20:12:00,36.9,20.9,29.97,WNW,293,0.0,0.0,52,0.00,,,0.00,WUHU216HW,2013-03-12 01:12:00,
2013-03-11 20:17:00,36.4,20.9,29.97,WNW,293,0.0,0.0,53,0.00,,,0.00,WUHU216HW,2013-03-12 01:17:00,
2013-03-11 20:22:00,35.8,20.8,29.97,WNW,293,0.0,0.0,54,0.00,,,0.00,WUHU216HW,2013-03-12 01:22:00,
2013-03-11 20:28:00,35.8,22.1,29.96,WNW,293,0.0,0.0,57,0.00,,,0.00,WUHU216HW,2013-03-12 01:28:00,
2013-03-11 20:33:00,35.3,21.6,29.96,WNW,293,0.0,0.0,57,0.00,,,0.00,WUHU216HW,2013-03-12 01:33:00,
2013-03-11 20:38:00,34.9,21.3,29.97,WNW,293,0.0,0.0,57,0.00,,,0.00,WUHU216HW,2013-03-12 01:38:00,
2013-03-11 20:43:00,34.0,20.7,29.97,WNW,293,0.0,0.0,58,0.00,,,0.00,WUHU216HW,2013-03-12 01:43:00,
2013-03-11 20:48:00,33.8,22.1,29.97,West,270,0.4,0.4,62,0.00,,,0.00,WUHU216HW,2013-03-12 01:48:00,
2013-03-11 20:53:00,33.8,22.5,29.97,West,270,0.0,0.4,63,0.00,,,0.00,WUHU216HW,2013-03-12 01:53:00,
2013-03-11 20:58:00,33.5,22.1,29.97,West,270,0.0,0.2,63,0.00,,,0.00,WUHU216HW,2013-03-12 01:58:00,
2013-03-11 21:04:00,33.1,21.9,29.97,West,270,0.0,0.0,63,0.00,,,0.00,WUHU216HW,2013-03-12 02:04:00,
2013-03-11 21:09:00,32.8,21.5,29.97,West,270,0.0,0.0,63,0.00,,,0.00,WUHU216HW,2013-03-12 02:09:00,
2013-03-11 21:14:00,32.8,22.2,29.98,WSW,248,0.0,0.9,65,0.00,,,0.00,WUHU216HW,2013-03-12 02:14:00,
2013-03-11 21:19:00,32.4,22.0,29.98,WSW,248,0.0,0.9,65,0.00,,,0.00,WUHU216HW,2013-03-12 02:19:00,
2013-03-11 21:24:00,32.0,22.0,29.98,West,270,0.0,0.0,66,0.00,,,0.00,WUHU216HW,2013-03-12 02:24:00,
2013-03-11 21:29:00,32.4,22.7,29.99,WNW,293,0.2,0.4,67,0.00,,,0.00,WUHU216HW,2013-03-12 02:29:00,
2013-03-11 21:34:00,32.4,22.7,29.99,WNW,293,0.0,0.4,67,0.00,,,0.00,WUHU216HW,2013-03-12 02:34:00,
2013-03-11 21:39:00,31.9,21.8,29.99,WNW,293,0.0,0.0,66,0.00,,,0.00,WUHU216HW,2013-03-12 02:39:00,
2013-03-11 21:44:00,31.3,21.2,30.00,West,270,0.0,0.0,66,0.00,,,0.00,WUHU216HW,2013-03-12 02:44:00,
2013-03-11 21:49:00,30.4,21.1,30.00,West,270,0.0,0.0,68,0.00,,,0.00,WUHU216HW,2013-03-12 02:49:00,
2013-03-11 21:54:00,30.4,21.8,30.00,West,270,0.0,0.0,70,0.00,,,0.00,WUHU216HW,2013-03-12 02:54:00,
2013-03-11 22:00:00,30.1,21.1,30.00,West,270,0.0,0.0,69,0.00,,,0.00,WUHU216HW,2013-03-12 03:00:00,
2013-03-11 22:05:00,29.7,21.2,30.01,West,270,0.0,0.0,70,0.00,,,0.00,WUHU216HW,2013-03-12 03:05:00,
2013-03-11 22:10:00,29.3,21.1,30.00,WNW,293,0.0,0.0,71,0.00,,,0.00,WUHU216HW,2013-03-12 03:10:00,
2013-03-11 22:15:00,29.5,21.9,30.00,WNW,293,0.0,0.0,73,0.00,,,0.00,WUHU216HW,2013-03-12 03:15:00,
2013-03-11 22:20:00,29.5,21.9,30.00,WNW,293,0.0,0.0,73,0.00,,,0.00,WUHU216HW,2013-03-12 03:20:00,
2013-03-11 22:25:00,29.7,23.1,30.00,WNW,293,0.0,0.0,76,0.00,,,0.00,WUHU216HW,2013-03-12 03:25:00,
2013-03-11 22:30:00,29.9,23.2,30.00,WNW,293,0.0,0.0,76,0.00,,,0.00,WUHU216HW,2013-03-12 03:30:00,
2013-03-11 22:35:00,29.5,22.5,30.00,WNW,293,0.0,0.0,75,0.00,,,0.00,WUHU216HW,2013-03-12 03:35:00,
2013-03-11 22:40:00,29.3,22.1,30.01,WNW,293,0.0,0.0,74,0.00,,,0.00,WUHU216HW,2013-03-12 03:40:00,
2013-03-11 22:45:00,29.5,22.5,30.01,WNW,293,0.0,0.0,75,0.00,,,0.00,WUHU216HW,2013-03-12 03:45:00,
2013-03-11 22:50:00,29.2,21.9,30.01,WNW,293,0.0,0.0,74,0.00,,,0.00,WUHU216HW,2013-03-12 03:50:00,
2013-03-11 22:55:00,28.6,21.7,30.02,WNW,293,0.0,0.0,75,0.00,,,0.00,WUHU216HW,2013-03-12 03:55:00,
2013-03-11 23:00:00,28.3,21.3,30.01,WNW,293,0.0,0.0,75,0.00,,,0.00,WUHU216HW,2013-03-12 04:00:00,
2013-03-11 23:01:00,28.1,21.4,30.01,WNW,293,0.0,0.0,76,0.00,,,0.00,WUHU216HW,2013-03-12 04:01:00,
2013-03-11 23:06:00,28.3,22.0,30.01,WNW,293,0.0,0.0,77,0.00,,,0.00,WUHU216HW,2013-03-12 04:06:00,
2013-03-11 23:11:00,28.4,21.8,30.01,SSW,203,0.4,0.4,76,0.00,,,0.00,WUHU216HW,2013-03-12 04:11:00,
2013-03-11 23:16:00,28.6,23.8,30.01,South,180,1.1,1.8,82,0.00,,,0.00,WUHU216HW,2013-03-12 04:16:00,
2013-03-11 23:21:00,29.2,23.5,30.01,SSW,203,0.4,1.8,79,0.00,,,0.00,WUHU216HW,2013-03-12 04:21:00,
2013-03-11 23:26:00,29.2,23.5,30.01,SSW,203,1.1,1.1,79,0.00,,,0.00,WUHU216HW,2013-03-12 04:26:00,
2013-03-11 23:32:00,29.3,23.9,30.01,SSW,203,0.4,1.1,80,0.00,,,0.00,WUHU216HW,2013-03-12 04:32:00,
2013-03-11 23:37:00,29.2,23.1,30.01,SSW,203,0.0,0.9,78,0.00,,,0.00,WUHU216HW,2013-03-12 04:37:00,
2013-03-11 23:42:00,29.0,23.3,30.00,SSW,203,0.4,1.1,79,0.00,,,0.00,WUHU216HW,2013-03-12 04:42:00,
2013-03-11 23:47:00,29.0,23.3,30.01,SW,225,0.9,1.1,79,0.00,,,0.00,WUHU216HW,2013-03-12 04:47:00,
2013-03-11 23:52:00,29.0,23.0,30.01,WSW,248,0.0,1.1,78,0.00,,,0.00,WUHU216HW,2013-03-12 04:52:00,
2013-03-11 23:57:00,28.6,22.6,30.02,WSW,248,0.0,0.9,78,0.00,,,0.00,WUHU216HW,2013-03-12 04:57:00,